| time (UTC) | temp F | wind direction | speed MPH | gust MPH | rain 1hr in | rain 24hr in | rain mn in | humidity % | barometer mb |
| 20260508035457 | 44 | 279 | 1.0 | 5.0 | 0.00 | 0.15 | 0.00 | 65 | 1010.7 |
| 20260508034957 | 45 | 252 | 2.0 | 5.0 | 0.00 | 0.15 | 0.00 | 65 | 1010.7 |
| 20260508034457 | 45 | 295 | 1.0 | 5.0 | 0.00 | 0.15 | 0.00 | 65 | 1010.8 |
| 20260508033957 | 45 | 263 | 2.0 | 5.0 | 0.00 | 0.15 | 0.00 | 66 | 1010.9 |
| 20260508033457 | 45 | 253 | 2.0 | 6.0 | 0.00 | 0.15 | 0.00 | 66 | 1010.9 |
| 20260508032957 | 45 | 262 | 2.0 | 6.0 | 0.00 | 0.15 | 0.00 | 67 | 1010.9 |
| 20260508032457 | 45 | 264 | 1.0 | 5.0 | 0.00 | 0.15 | 0.00 | 67 | 1011.0 |
| 20260508031957 | 45 | 264 | 1.0 | 3.0 | 0.00 | 0.15 | 0.00 | 68 | 1011.0 |
| 20260508031457 | 45 | 241 | 1.0 | 4.0 | 0.00 | 0.15 | 0.00 | 68 | 1011.1 |
| 20260508030957 | 45 | 259 | 1.0 | 2.0 | 0.00 | 0.15 | 0.00 | 68 | 1011.0 |
| 20260508030457 | 46 | 253 | 1.0 | 3.0 | 0.00 | 0.15 | 0.00 | 69 | 1010.9 |
| 20260508025957 | 46 | 271 | 0.0 | 2.0 | 0.00 | 0.15 | 0.00 | 70 | 1011.0 |
| 20260508025457 | 46 | 261 | 0.0 | 2.0 | 0.00 | 0.15 | 0.00 | 70 | 1011.0 |
| 20260508024957 | 46 | 272 | 1.0 | 2.0 | 0.00 | 0.15 | 0.00 | 71 | 1010.9 |
| 20260508024457 | 46 | 267 | 0.0 | 2.0 | 0.00 | 0.15 | 0.00 | 71 | 1010.9 |
| 20260508023957 | 46 | 257 | 0.0 | 2.0 | 0.00 | 0.15 | 0.00 | 72 | 1010.9 |
| 20260508023457 | 46 | 255 | 0.0 | 1.0 | 0.00 | 0.15 | 0.00 | 72 | 1010.9 |
| 20260508022958 | 46 | 280 | 0.0 | 1.0 | 0.00 | 0.15 | 0.00 | 72 | 1011.0 |
| 20260508022457 | 47 | 277 | 0.0 | 2.0 | 0.00 | 0.15 | 0.00 | 72 | 1011.1 |
| 20260508021957 | 47 | 276 | 0.0 | 2.0 | 0.00 | 0.15 | 0.00 | 72 | 1011.2 |
| 20260508021457 | 47 | 271 | 0.0 | 2.0 | 0.00 | 0.15 | 0.00 | 73 | 1011.2 |
| 20260508020957 | 47 | 278 | 1.0 | 2.0 | 0.00 | 0.15 | 0.00 | 73 | 1011.2 |
| 20260508020457 | 47 | 288 | 1.0 | 2.0 | 0.00 | 0.15 | 0.00 | 73 | 1011.3 |
| 20260508015957 | 47 | 278 | 1.0 | 2.0 | 0.00 | 0.15 | 0.00 | 73 | 1011.3 |
| 20260508015457 | 48 | 290 | 0.0 | 2.0 | 0.00 | 0.15 | 0.00 | 73 | 1011.3 |
| 20260508014957 | 48 | 268 | 0.0 | 1.0 | 0.00 | 0.15 | 0.00 | 73 | 1011.4 |
| 20260508014457 | 48 | 292 | 0.0 | 2.0 | 0.00 | 0.15 | 0.00 | 73 | 1011.4 |
| 20260508013957 | 48 | 262 | 0.0 | 1.0 | 0.00 | 0.15 | 0.00 | 73 | 1011.5 |
| 20260508013457 | 48 | 259 | 0.0 | 1.0 | 0.00 | 0.15 | 0.00 | 73 | 1011.6 |
| 20260508012957 | 48 | 244 | 0.0 | 1.0 | 0.00 | 0.15 | 0.00 | 73 | 1011.7 |
| 20260508012457 | 48 | 230 | 0.0 | 1.0 | 0.00 | 0.15 | 0.00 | 74 | 1011.8 |
| 20260508011957 | 49 | 230 | 0.0 | 0.0 | 0.00 | 0.15 | 0.00 | 74 | 1011.7 |
| 20260508011457 | 49 | 230 | 0.0 | 0.0 | 0.00 | 0.15 | 0.00 | 74 | 1011.8 |
| 20260508010957 | 49 | 179 | 0.0 | 0.0 | 0.00 | 0.15 | 0.00 | 74 | 1011.8 |
| 20260508010457 | 49 | 179 | 0.0 | 0.0 | 0.00 | 0.15 | 0.00 | 74 | 1011.8 |
| 20260508005957 | 49 | 178 | 0.0 | 0.0 | 0.00 | 0.15 | 0.00 | 74 | 1011.8 |
| 20260508005457 | 49 | 179 | 0.0 | 0.0 | 0.00 | 0.15 | 0.00 | 74 | 1011.9 |
| 20260508004958 | 49 | 179 | 0.0 | 1.0 | 0.00 | 0.15 | 0.00 | 75 | 1011.9 |
| 20260508004458 | 50 | 201 | 0.0 | 0.0 | 0.00 | 0.15 | 0.00 | 75 | 1011.9 |
| 20260508003957 | 50 | 310 | 0.0 | 0.0 | 0.00 | 0.15 | 0.00 | 75 | 1011.9 |
| 20260508003458 | 50 | 310 | 1.0 | 2.0 | 0.00 | 0.15 | 0.00 | 75 | 1011.9 |
| 20260508002958 | 50 | 330 | 0.0 | 2.0 | 0.00 | 0.15 | 0.00 | 75 | 1011.9 |
| 20260508002458 | 50 | 295 | 0.0 | 1.0 | 0.00 | 0.15 | 0.00 | 75 | 1011.9 |
| 20260508001958 | 50 | 283 | 0.0 | 3.0 | 0.00 | 0.15 | 0.00 | 75 | 1011.9 |
| 20260508001458 | 50 | 310 | 1.0 | 0.0 | 0.00 | 0.15 | 0.00 | 75 | 1012.0 |
| 20260508000958 | 50 | 310 | 2.0 | 3.0 | 0.00 | 0.15 | 0.00 | 75 | 1012.0 |
| 20260508000458 | 50 | 296 | 2.0 | 4.0 | 0.00 | 0.15 | 0.00 | 75 | 1012.0 |
| 20260507235958 | 50 | 294 | 1.0 | 4.0 | 0.00 | 0.15 | 0.00 | 75 | 1012.0 |
| 20260507235458 | 50 | 314 | 1.0 | 3.0 | 0.00 | 0.15 | 0.00 | 75 | 1012.0 |
| 20260507234958 | 50 | 292 | 2.0 | 4.0 | 0.00 | 0.15 | 0.00 | 75 | 1012.1 |
| 20260507234458 | 50 | 304 | 2.0 | 6.0 | 0.00 | 0.15 | 0.00 | 75 | 1012.2 |
| 20260507233958 | 50 | 299 | 2.0 | 4.0 | 0.00 | 0.15 | 0.00 | 75 | 1012.2 |
| 20260507233458 | 50 | 290 | 2.0 | 4.0 | 0.00 | 0.15 | 0.00 | 75 | 1012.3 |
| 20260507232958 | 50 | 300 | 2.0 | 3.0 | 0.00 | 0.15 | 0.00 | 75 | 1012.3 |
| 20260507232458 | 50 | 323 | 2.0 | 4.0 | 0.00 | 0.15 | 0.00 | 75 | 1012.3 |
| 20260507231958 | 50 | 291 | 2.0 | 5.0 | 0.00 | 0.15 | 0.00 | 75 | 1012.3 |
| 20260507231458 | 50 | 290 | 2.0 | 4.0 | 0.00 | 0.15 | 0.00 | 75 | 1012.4 |
| 20260507230958 | 50 | 317 | 2.0 | 5.0 | 0.00 | 0.15 | 0.00 | 75 | 1012.4 |
| 20260507230458 | 50 | 282 | 2.0 | 6.0 | 0.00 | 0.15 | 0.00 | 75 | 1012.4 |
| 20260507225958 | 50 | 319 | 1.0 | 5.0 | 0.00 | 0.15 | 0.00 | 75 | 1012.5 |
| 20260507225458 | 50 | 317 | 1.0 | 3.0 | 0.00 | 0.15 | 0.00 | 75 | 1012.5 |
| 20260507224958 | 50 | 316 | 2.0 | 4.0 | 0.00 | 0.15 | 0.00 | 75 | 1012.5 |
| 20260507224458 | 50 | 342 | 2.0 | 7.0 | 0.00 | 0.15 | 0.00 | 75 | 1012.4 |
| 20260507223958 | 50 | 338 | 3.0 | 6.0 | 0.00 | 0.15 | 0.00 | 75 | 1012.4 |
| 20260507223458 | 50 | 300 | 4.0 | 6.0 | 0.00 | 0.15 | 0.00 | 75 | 1012.5 |
| 20260507222958 | 50 | 307 | 4.0 | 7.0 | 0.00 | 0.15 | 0.00 | 75 | 1012.5 |
| 20260507222458 | 50 | 312 | 3.0 | 7.0 | 0.00 | 0.15 | 0.00 | 75 | 1012.5 |
| 20260507221958 | 50 | 313 | 3.0 | 6.0 | 0.00 | 0.15 | 0.00 | 75 | 1012.4 |
| 20260507221458 | 50 | 344 | 2.0 | 7.0 | 0.00 | 0.15 | 0.00 | 75 | 1012.5 |
| 20260507220958 | 50 | 308 | 1.0 | 5.0 | 0.00 | 0.15 | 0.00 | 75 | 1012.5 |
| 20260507220458 | 50 | 340 | 1.0 | 3.0 | 0.00 | 0.15 | 0.00 | 75 | 1012.4 |
| 20260507215958 | 50 | 313 | 1.0 | 3.0 | 0.00 | 0.15 | 0.15 | 75 | 1012.3 |
| 20260507215458 | 50 | 278 | 1.0 | 3.0 | 0.00 | 0.15 | 0.15 | 75 | 1012.2 |
| 20260507214958 | 50 | 297 | 2.0 | 3.0 | 0.00 | 0.15 | 0.15 | 75 | 1012.2 |
| 20260507214458 | 51 | 302 | 2.0 | 4.0 | 0.00 | 0.15 | 0.15 | 75 | 1012.2 |
| 20260507213958 | 51 | 304 | 2.0 | 4.0 | 0.00 | 0.15 | 0.15 | 75 | 1012.1 |
| 20260507213458 | 51 | 334 | 3.0 | 4.0 | 0.00 | 0.15 | 0.15 | 75 | 1012.0 |
| 20260507212958 | 51 | 299 | 3.0 | 6.0 | 0.00 | 0.15 | 0.15 | 75 | 1012.0 |
| 20260507212458 | 51 | 300 | 3.0 | 5.0 | 0.00 | 0.15 | 0.15 | 75 | 1012.0 |
| 20260507211958 | 51 | 294 | 2.0 | 4.0 | 0.00 | 0.15 | 0.15 | 75 | 1012.1 |
| 20260507211458 | 51 | 289 | 1.0 | 4.0 | 0.00 | 0.15 | 0.15 | 75 | 1012.2 |
| 20260507210958 | 51 | 291 | 1.0 | 3.0 | 0.00 | 0.15 | 0.15 | 75 | 1012.2 |
| 20260507210458 | 51 | 288 | 1.0 | 4.0 | 0.00 | 0.15 | 0.15 | 74 | 1012.2 |
| 20260507205958 | 51 | 60 | 1.0 | 4.0 | 0.00 | 0.15 | 0.15 | 75 | 1012.2 |
| 20260507205458 | 51 | 300 | 0.0 | 1.0 | 0.00 | 0.15 | 0.15 | 75 | 1012.1 |
| 20260507204958 | 51 | 333 | 1.0 | 2.0 | 0.00 | 0.15 | 0.15 | 75 | 1012.1 |
| 20260507204458 | 51 | 54 | 1.0 | 2.0 | 0.00 | 0.15 | 0.15 | 75 | 1012.1 |
| 20260507203958 | 51 | 55 | 0.0 | 4.0 | 0.00 | 0.15 | 0.15 | 75 | 1012.1 |
| 20260507203458 | 52 | 37 | 0.0 | 3.0 | 0.00 | 0.15 | 0.15 | 75 | 1012.1 |
| 20260507202958 | 52 | 65 | 2.0 | 3.0 | 0.00 | 0.15 | 0.15 | 75 | 1012.1 |
| 20260507202458 | 52 | 60 | 3.0 | 7.0 | 0.00 | 0.15 | 0.15 | 74 | 1012.0 |
| 20260507201958 | 52 | 76 | 2.0 | 5.0 | 0.00 | 0.15 | 0.15 | 74 | 1012.0 |
| 20260507201458 | 52 | 49 | 2.0 | 5.0 | 0.00 | 0.15 | 0.15 | 73 | 1011.9 |
| 20260507200958 | 53 | 100 | 1.0 | 4.0 | 0.00 | 0.15 | 0.15 | 73 | 1012.0 |
| 20260507200458 | 53 | 53 | 1.0 | 4.0 | 0.00 | 0.15 | 0.15 | 73 | 1011.9 |
| 20260507195958 | 53 | 14 | 2.0 | 3.0 | 0.00 | 0.15 | 0.15 | 74 | 1011.7 |
| 20260507195459 | 53 | 40 | 4.0 | 6.0 | 0.00 | 0.15 | 0.15 | 73 | 1011.6 |
| 20260507194958 | 54 | 10 | 4.0 | 6.0 | 0.00 | 0.15 | 0.15 | 72 | 1011.4 |
| 20260507194459 | 54 | 41 | 3.0 | 6.0 | 0.00 | 0.15 | 0.15 | 72 | 1011.2 |
| 20260507193959 | 54 | 338 | 2.0 | 4.0 | 0.00 | 0.15 | 0.15 | 72 | 1011.1 |
| 20260507193458 | 55 | 351 | 2.0 | 6.0 | 0.00 | 0.15 | 0.15 | 72 | 1011.0 |
| 20260507192959 | 55 | 340 | 3.0 | 4.0 | 0.00 | 0.15 | 0.15 | 71 | 1011.0 |
| 20260507192459 | 55 | 300 | 3.0 | 6.0 | 0.00 | 0.15 | 0.15 | 71 | 1011.0 |
| 20260507191959 | 55 | 345 | 4.0 | 7.0 | 0.00 | 0.15 | 0.15 | 71 | 1010.9 |
| 20260507191459 | 55 | 342 | 3.0 | 7.0 | 0.00 | 0.15 | 0.15 | 71 | 1010.7 |
| 20260507190959 | 55 | 297 | 2.0 | 7.0 | 0.00 | 0.15 | 0.15 | 71 | 1010.7 |
| 20260507190459 | 56 | 306 | 3.0 | 5.0 | 0.00 | 0.15 | 0.15 | 70 | 1010.7 |
| 20260507185959 | 56 | 300 | 3.0 | 9.0 | 0.00 | 0.15 | 0.15 | 70 | 1010.7 |
| 20260507185459 | 56 | 321 | 3.0 | 5.0 | 0.00 | 0.15 | 0.15 | 70 | 1010.6 |
| 20260507184959 | 56 | 323 | 3.0 | 6.0 | 0.00 | 0.15 | 0.15 | 69 | 1010.6 |
| 20260507184459 | 56 | 289 | 4.0 | 6.0 | 0.00 | 0.15 | 0.15 | 69 | 1010.5 |
| 20260507183959 | 57 | 296 | 4.0 | 6.0 | 0.00 | 0.15 | 0.15 | 69 | 1010.5 |
| 20260507183459 | 57 | 334 | 5.0 | 8.0 | 0.00 | 0.15 | 0.15 | 68 | 1010.5 |
| 20260507182959 | 58 | 321 | 6.0 | 10.0 | 0.00 | 0.15 | 0.15 | 68 | 1010.5 |
| 20260507182459 | 58 | 302 | 5.0 | 9.0 | 0.00 | 0.15 | 0.15 | 68 | 1010.5 |
| 20260507181959 | 58 | 322 | 4.0 | 8.0 | 0.00 | 0.15 | 0.15 | 69 | 1010.4 |
| 20260507181459 | 57 | 324 | 4.0 | 10.0 | 0.00 | 0.15 | 0.15 | 70 | 1010.4 |
| 20260507180959 | 57 | 294 | 4.0 | 10.0 | 0.00 | 0.15 | 0.15 | 72 | 1010.5 |
| 20260507180459 | 57 | 348 | 4.0 | 8.0 | 0.00 | 0.15 | 0.15 | 73 | 1010.5 |
| 20260507175959 | 56 | 311 | 5.0 | 7.0 | 0.00 | 0.15 | 0.15 | 74 | 1010.5 |
| 20260507175459 | 56 | 341 | 7.0 | 12.0 | 0.00 | 0.15 | 0.15 | 74 | 1010.5 |
| 20260507174959 | 56 | 299 | 7.0 | 11.0 | 0.00 | 0.15 | 0.15 | 58 | 1010.5 |
| 20260507174459 | 56 | 314 | 5.0 | 11.0 | 0.00 | 0.15 | 0.15 | 52 | 1010.5 |
| 20260507173959 | 56 | 348 | 4.0 | 9.0 | 0.00 | 0.15 | 0.15 | 49 | 1010.5 |
| 20260507173459 | 56 | 340 | 4.0 | 7.0 | 0.00 | 0.15 | 0.15 | 47 | 1010.4 |
| 20260507172959 | 56 | 6 | 6.0 | 9.0 | 0.01 | 0.15 | 0.15 | 47 | 1010.4 |
| 20260507172459 | 55 | 328 | 6.0 | 11.0 | 0.01 | 0.15 | 0.15 | 49 | 1010.4 |
| 20260507171959 | 55 | 330 | 4.0 | 12.0 | 0.01 | 0.15 | 0.15 | 46 | 1010.3 |
| 20260507171459 | 56 | 312 | 4.0 | 5.0 | 0.01 | 0.15 | 0.15 | 43 | 1010.4 |
| 20260507171000 | 55 | 340 | 4.0 | 9.0 | 0.01 | 0.15 | 0.15 | 44 | 1010.4 |
| 20260507170459 | 55 | 4 | 5.0 | 9.0 | 0.01 | 0.15 | 0.15 | 43 | 1010.4 |
| 20260507165959 | 54 | 337 | 5.0 | 9.0 | 0.01 | 0.15 | 0.15 | 42 | 1010.4 |
| 20260507165459 | 54 | 345 | 4.0 | 8.0 | 0.01 | 0.15 | 0.15 | 41 | 1010.4 |
| 20260507164959 | 54 | 333 | 4.0 | 7.0 | 0.01 | 0.15 | 0.15 | 41 | 1010.3 |
| 20260507164459 | 54 | 347 | 4.0 | 7.0 | 0.01 | 0.15 | 0.15 | 41 | 1010.3 |
| 20260507163959 | 54 | 326 | 4.0 | 7.0 | 0.01 | 0.15 | 0.15 | 41 | 1010.4 |
| 20260507163459 | 53 | 333 | 4.0 | 7.0 | 0.01 | 0.15 | 0.15 | 41 | 1010.4 |
| 20260507162959 | 53 | 345 | 5.0 | 9.0 | 0.00 | 0.14 | 0.14 | 42 | 1010.3 |
| 20260507162459 | 52 | 345 | 5.0 | 9.0 | 0.00 | 0.14 | 0.14 | 43 | 1010.4 |
| 20260507161959 | 51 | 326 | 3.0 | 9.0 | 0.00 | 0.14 | 0.14 | 44 | 1010.3 |
| 20260507161459 | 51 | 349 | 2.0 | 4.0 | 0.00 | 0.14 | 0.14 | 45 | 1010.3 |
| 20260507160959 | 50 | 312 | 2.0 | 4.0 | 0.00 | 0.14 | 0.14 | 45 | 1010.2 |
| 20260507160459 | 50 | 312 | 3.0 | 4.0 | 0.00 | 0.14 | 0.14 | 46 | 1010.1 |
| 20260507155959 | 50 | 290 | 3.0 | 7.0 | 0.00 | 0.14 | 0.14 | 47 | 1010.1 |
| 20260507155459 | 49 | 242 | 3.0 | 5.0 | 0.00 | 0.14 | 0.14 | 47 | 1010.2 |
| 20260507154959 | 49 | 282 | 3.0 | 7.0 | 0.00 | 0.14 | 0.14 | 48 | 1010.5 |
| 20260507154459 | 50 | 269 | 2.0 | 4.0 | 0.00 | 0.14 | 0.14 | 48 | 1010.9 |
| 20260507153959 | 50 | 0 | 2.0 | 5.0 | 0.00 | 0.14 | 0.14 | 48 | 1011.4 |
| 20260507153459 | 50 | 306 | 2.0 | 4.0 | 0.00 | 0.14 | 0.14 | 49 | 1011.5 |
| 20260507152959 | 50 | 343 | 2.0 | 5.0 | 0.08 | 0.14 | 0.14 | 50 | 1011.5 |
| 20260507152459 | 49 | 296 | 2.0 | 4.0 | 0.11 | 0.14 | 0.14 | 51 | 1011.4 |
| 20260507151959 | 49 | 338 | 3.0 | 5.0 | 0.11 | 0.14 | 0.14 | 52 | 1011.3 |
| 20260507151459 | 49 | 300 | 4.0 | 6.0 | 0.11 | 0.14 | 0.14 | 54 | 1011.3 |
| 20260507150959 | 49 | 314 | 5.0 | 8.0 | 0.14 | 0.14 | 0.14 | 55 | 1011.2 |
| 20260507150459 | 49 | 319 | 5.0 | 8.0 | 0.14 | 0.14 | 0.14 | 57 | 1011.2 |
| 20260507145959 | 49 | 295 | 3.0 | 9.0 | 0.14 | 0.14 | 0.14 | 60 | 1011.3 |
| 20260507145459 | 49 | 283 | 3.0 | 6.0 | 0.14 | 0.14 | 0.14 | 63 | 1011.3 |
| 20260507145000 | 49 | 296 | 3.0 | 5.0 | 0.14 | 0.14 | 0.14 | 66 | 1011.3 |
| 20260507144500 | 49 | 323 | 5.0 | 7.0 | 0.14 | 0.14 | 0.14 | 72 | 1011.3 |
| 20260507143959 | 51 | 341 | 7.0 | 14.0 | 0.14 | 0.14 | 0.14 | 74 | 1011.4 |
| 20260507143500 | 54 | 12 | 9.0 | 12.0 | 0.14 | 0.14 | 0.14 | 67 | 1011.6 |
| 20260507143000 | 56 | 67 | 9.0 | 17.0 | 0.06 | 0.06 | 0.06 | 62 | 1011.4 |
| 20260507142500 | 58 | 8 | 10.0 | 19.0 | 0.03 | 0.03 | 0.03 | 57 | 1011.1 |
| 20260507142000 | 59 | 358 | 10.0 | 20.0 | 0.03 | 0.03 | 0.03 | 56 | 1010.9 |
| 20260507141500 | 61 | 52 | 6.0 | 26.0 | 0.03 | 0.03 | 0.03 | 52 | 1010.6 |
| 20260507141000 | 62 | 300 | 2.0 | 5.0 | 0.00 | 0.00 | 0.00 | 52 | 1010.3 |
| 20260507140500 | 62 | 218 | 2.0 | 4.0 | 0.00 | 0.00 | 0.00 | 52 | 1010.0 |
| 20260507140000 | 62 | 255 | 2.0 | 4.0 | 0.00 | 0.00 | 0.00 | 53 | 1010.0 |
| 20260507135500 | 63 | 258 | 3.0 | 5.0 | 0.00 | 0.00 | 0.00 | 52 | 1009.9 |
| 20260507135000 | 63 | 258 | 4.0 | 10.0 | 0.00 | 0.00 | 0.00 | 53 | 1009.9 |
| 20260507134500 | 63 | 245 | 3.0 | 12.0 | 0.00 | 0.00 | 0.00 | 50 | 1009.9 |
| 20260507134000 | 64 | 240 | 3.0 | 5.0 | 0.00 | 0.00 | 0.00 | 53 | 1009.9 |
| 20260507133500 | 63 | 139 | 4.0 | 7.0 | 0.00 | 0.00 | 0.00 | 51 | 1010.0 |
| 20260507133000 | 63 | 188 | 5.0 | 10.0 | 0.00 | 0.00 | 0.00 | 52 | 1009.9 |
| 20260507132500 | 63 | 226 | 5.0 | 10.0 | 0.00 | 0.00 | 0.00 | 53 | 1009.9 |
| 20260507132000 | 63 | 150 | 4.0 | 11.0 | 0.00 | 0.00 | 0.00 | 54 | 1009.9 |
| 20260507131500 | 63 | 173 | 3.0 | 9.0 | 0.00 | 0.00 | 0.00 | 55 | 1010.0 |
| 20260507131000 | 63 | 160 | 3.0 | 6.0 | 0.00 | 0.00 | 0.00 | 55 | 1009.9 |
| 20260507130500 | 63 | 163 | 3.0 | 6.0 | 0.00 | 0.00 | 0.00 | 52 | 1010.0 |
| 20260507130000 | 63 | 167 | 3.0 | 6.0 | 0.00 | 0.00 | 0.00 | 55 | 1010.0 |
| 20260507125500 | 62 | 133 | 4.0 | 6.0 | 0.00 | 0.00 | 0.00 | 53 | 1010.0 |
| 20260507125000 | 61 | 226 | 6.0 | 8.0 | 0.00 | 0.00 | 0.00 | 52 | 1010.1 |
| 20260507124500 | 61 | 219 | 4.0 | 11.0 | 0.00 | 0.00 | 0.00 | 54 | 1010.1 |
| 20260507124000 | 60 | 204 | 3.0 | 6.0 | 0.00 | 0.00 | 0.00 | 55 | 1010.2 |
| 20260507123500 | 60 | 257 | 3.0 | 6.0 | 0.00 | 0.00 | 0.00 | 55 | 1010.4 |
| 20260507123000 | 60 | 283 | 3.0 | 8.0 | 0.00 | 0.00 | 0.00 | 52 | 1010.4 |
| 20260507122500 | 60 | 288 | 3.0 | 7.0 | 0.00 | 0.00 | 0.00 | 52 | 1010.5 |
| 20260507122000 | 61 | 247 | 1.0 | 8.0 | 0.00 | 0.00 | 0.00 | 54 | 1010.6 |
| 20260507121500 | 61 | 122 | 2.0 | 3.0 | 0.00 | 0.00 | 0.00 | 57 | 1010.6 |
| 20260507121000 | 61 | 88 | 3.0 | 3.0 | 0.00 | 0.00 | 0.00 | 56 | 1010.6 |
| 20260507120500 | 61 | 87 | 3.0 | 5.0 | 0.00 | 0.00 | 0.00 | 56 | 1010.7 |
| 20260507120000 | 61 | 82 | 5.0 | 5.0 | 0.00 | 0.00 | 0.00 | 57 | 1010.7 |
| 20260507115500 | 61 | 119 | 5.0 | 8.0 | 0.00 | 0.00 | 0.00 | 56 | 1010.8 |
| 20260507115000 | 62 | 130 | 4.0 | 10.0 | 0.00 | 0.00 | 0.00 | 54 | 1010.9 |
| 20260507114500 | 63 | 134 | 2.0 | 9.0 | 0.00 | 0.00 | 0.00 | 54 | 1010.9 |
| 20260507114000 | 64 | 179 | 2.0 | 6.0 | 0.00 | 0.00 | 0.00 | 54 | 1010.9 |
| 20260507113500 | 64 | 49 | 2.0 | 5.0 | 0.00 | 0.00 | 0.00 | 54 | 1011.0 |
| 20260507113000 | 64 | 157 | 2.0 | 3.0 | 0.00 | 0.00 | 0.00 | 54 | 1011.0 |
| 20260507112500 | 64 | 32 | 3.0 | 7.0 | 0.00 | 0.00 | 0.00 | 54 | 1011.1 |
| 20260507112000 | 63 | 73 | 4.0 | 7.0 | 0.00 | 0.00 | 0.00 | 56 | 1011.2 |
| 20260507111500 | 62 | 94 | 4.0 | 7.0 | 0.00 | 0.00 | 0.00 | 53 | 1011.2 |
| 20260507111000 | 63 | 107 | 3.0 | 6.0 | 0.00 | 0.00 | 0.00 | 52 | 1011.3 |
| 20260507110500 | 63 | 350 | 3.0 | 5.0 | 0.00 | 0.00 | 0.00 | 54 | 1011.4 |
| 20260507110000 | 63 | 11 | 2.0 | 7.0 | 0.00 | 0.00 | 0.00 | 54 | 1011.4 |
| 20260507105500 | 62 | 345 | 3.0 | 4.0 | 0.00 | 0.00 | 0.00 | 55 | 1011.5 |
| 20260507105000 | 62 | 345 | 3.0 | 6.0 | 0.00 | 0.00 | 0.00 | 54 | 1011.6 |
| 20260507104500 | 62 | 58 | 2.0 | 7.0 | 0.00 | 0.00 | 0.00 | 54 | 1011.6 |
| 20260507104000 | 62 | 330 | 1.0 | 3.0 | 0.00 | 0.00 | 0.00 | 56 | 1011.7 |
| 20260507103500 | 61 | 276 | 2.0 | 3.0 | 0.00 | 0.00 | 0.00 | 55 | 1011.7 |
| 20260507103000 | 61 | 324 | 2.0 | 8.0 | 0.00 | 0.00 | 0.00 | 55 | 1011.8 |
| 20260507102500 | 61 | 358 | 2.0 | 8.0 | 0.00 | 0.00 | 0.00 | 55 | 1011.8 |
| 20260507102000 | 61 | 42 | 3.0 | 4.0 | 0.00 | 0.00 | 0.00 | 56 | 1011.8 |
| 20260507101500 | 60 | 75 | 3.0 | 6.0 | 0.00 | 0.00 | 0.00 | 56 | 1011.8 |
| 20260507101000 | 61 | 46 | 2.0 | 6.0 | 0.00 | 0.00 | 0.00 | 57 | 1011.9 |
| 20260507100500 | 61 | 14 | 1.0 | 4.0 | 0.00 | 0.00 | 0.00 | 61 | 1011.9 |
| 20260507100000 | 60 | 278 | 0.0 | 3.0 | 0.00 | 0.00 | 0.00 | 63 | 1011.9 |
| 20260507095500 | 60 | 333 | 0.0 | 2.0 | 0.00 | 0.00 | 0.00 | 64 | 1012.0 |
| 20260507095000 | 59 | 181 | 1.0 | 2.0 | 0.00 | 0.00 | 0.00 | 63 | 1012.0 |
| 20260507094500 | 58 | 302 | 2.0 | 5.0 | 0.00 | 0.00 | 0.00 | 64 | 1012.1 |
| 20260507094001 | 57 | 359 | 2.0 | 4.0 | 0.00 | 0.00 | 0.00 | 66 | 1012.1 |
| 20260507093501 | 57 | 300 | 3.0 | 6.0 | 0.00 | 0.00 | 0.00 | 68 | 1012.1 |
| 20260507093001 | 57 | 281 | 2.0 | 4.0 | 0.00 | 0.00 | 0.00 | 70 | 1012.2 |
| 20260507092501 | 56 | 264 | 3.0 | 5.0 | 0.00 | 0.00 | 0.00 | 70 | 1012.1 |
| 20260507092001 | 55 | 311 | 3.0 | 6.0 | 0.00 | 0.00 | 0.00 | 71 | 1012.2 |
| 20260507091501 | 55 | 295 | 3.0 | 5.0 | 0.00 | 0.00 | 0.00 | 71 | 1012.3 |
| 20260507091001 | 55 | 297 | 2.0 | 5.0 | 0.00 | 0.00 | 0.00 | 70 | 1012.3 |
| 20260507090501 | 55 | 307 | 2.0 | 4.0 | 0.00 | 0.00 | 0.00 | 71 | 1012.3 |
| 20260507090001 | 54 | 283 | 2.0 | 6.0 | 0.00 | 0.00 | 0.00 | 72 | 1012.3 |
| 20260507085501 | 54 | 252 | 2.0 | 6.0 | 0.00 | 0.00 | 0.00 | 71 | 1012.4 |
| 20260507085001 | 54 | 263 | 2.0 | 5.0 | 0.00 | 0.00 | 0.00 | 72 | 1012.4 |
| 20260507084501 | 53 | 283 | 3.0 | 5.0 | 0.00 | 0.00 | 0.00 | 72 | 1012.4 |
| 20260507084001 | 53 | 254 | 3.0 | 7.0 | 0.00 | 0.00 | 0.00 | 73 | 1012.4 |
| 20260507083501 | 53 | 303 | 2.0 | 5.0 | 0.00 | 0.00 | 0.00 | 73 | 1012.4 |
| 20260507083001 | 53 | 310 | 3.0 | 5.0 | 0.00 | 0.00 | 0.00 | 74 | 1012.4 |
| 20260507082501 | 52 | 352 | 3.0 | 6.0 | 0.00 | 0.00 | 0.00 | 74 | 1012.4 |
| 20260507082001 | 52 | 307 | 3.0 | 6.0 | 0.00 | 0.01 | 0.00 | 74 | 1012.4 |
| 20260507081501 | 51 | 328 | 2.0 | 5.0 | 0.00 | 0.01 | 0.00 | 75 | 1012.4 |
| 20260507081001 | 51 | 297 | 3.0 | 6.0 | 0.00 | 0.01 | 0.00 | 74 | 1012.3 |
| 20260507080501 | 50 | 287 | 3.0 | 6.0 | 0.00 | 0.01 | 0.00 | 74 | 1012.2 |
| 20260507080001 | 50 | 274 | 4.0 | 9.0 | 0.00 | 0.01 | 0.00 | 75 | 1012.2 |
| 20260507075501 | 49 | 238 | 5.0 | 10.0 | 0.00 | 0.01 | 0.00 | 75 | 1012.2 |
| 20260507075001 | 49 | 268 | 5.0 | 10.0 | 0.00 | 0.01 | 0.00 | 74 | 1012.2 |
| 20260507074501 | 49 | 253 | 4.0 | 10.0 | 0.00 | 0.01 | 0.00 | 75 | 1012.2 |
| 20260507074001 | 49 | 255 | 4.0 | 10.0 | 0.00 | 0.01 | 0.00 | 75 | 1012.4 |
| 20260507073501 | 49 | 246 | 5.0 | 9.0 | 0.00 | 0.01 | 0.00 | 75 | 1012.4 |
| 20260507073001 | 49 | 261 | 4.0 | 9.0 | 0.00 | 0.01 | 0.00 | 75 | 1012.5 |
| 20260507072501 | 49 | 259 | 4.0 | 12.0 | 0.00 | 0.01 | 0.00 | 75 | 1012.5 |
| 20260507072001 | 49 | 249 | 5.0 | 10.0 | 0.00 | 0.01 | 0.00 | 75 | 1012.6 |
| 20260507071501 | 49 | 262 | 5.0 | 9.0 | 0.00 | 0.01 | 0.00 | 75 | 1012.6 |
| 20260507071001 | 49 | 246 | 5.0 | 9.0 | 0.00 | 0.01 | 0.00 | 74 | 1012.7 |
| 20260507070501 | 48 | 276 | 5.0 | 10.0 | 0.00 | 0.01 | 0.00 | 74 | 1012.7 |
| 20260507070001 | 48 | 257 | 5.0 | 9.0 | 0.00 | 0.01 | 0.00 | 73 | 1012.8 |
| 20260507065501 | 48 | 250 | 5.0 | 11.0 | 0.00 | 0.01 | 0.00 | 72 | 1012.8 |
| 20260507065001 | 48 | 246 | 4.0 | 10.0 | 0.00 | 0.01 | 0.00 | 70 | 1012.8 |
| 20260507064501 | 47 | 245 | 3.0 | 7.0 | 0.00 | 0.01 | 0.00 | 68 | 1012.8 |
| 20260507064001 | 47 | 244 | 4.0 | 5.0 | 0.00 | 0.01 | 0.00 | 67 | 1012.8 |
| 20260507063501 | 46 | 246 | 4.0 | 9.0 | 0.00 | 0.01 | 0.00 | 66 | 1012.8 |
| 20260507063001 | 46 | 254 | 3.0 | 7.0 | 0.00 | 0.01 | 0.00 | 65 | 1012.8 |
| 20260507062501 | 46 | 236 | 4.0 | 6.0 | 0.00 | 0.01 | 0.00 | 64 | 1012.9 |
| 20260507062001 | 46 | 241 | 4.0 | 8.0 | 0.00 | 0.01 | 0.00 | 63 | 1012.8 |
| 20260507061502 | 45 | 255 | 4.0 | 7.0 | 0.00 | 0.01 | 0.00 | 61 | 1012.6 |
| 20260507061001 | 45 | 252 | 4.0 | 10.0 | 0.00 | 0.01 | 0.00 | 61 | 1012.6 |
| 20260507060501 | 45 | 250 | 4.0 | 10.0 | 0.00 | 0.01 | 0.00 | 61 | 1012.5 |
| 20260507060001 | 44 | 276 | 4.0 | 7.0 | 0.00 | 0.01 | 0.00 | 61 | 1012.4 |
| 20260507055501 | 44 | 248 | 4.0 | 10.0 | 0.00 | 0.01 | 0.00 | 61 | 1012.5 |
| 20260507055001 | 44 | 269 | 5.0 | 10.0 | 0.00 | 0.01 | 0.00 | 61 | 1012.5 |
| 20260507054501 | 44 | 256 | 4.0 | 8.0 | 0.00 | 0.01 | 0.00 | 61 | 1012.4 |
| 20260507054001 | 44 | 247 | 3.0 | 8.0 | 0.00 | 0.01 | 0.00 | 61 | 1012.5 |
| 20260507053501 | 44 | 236 | 3.0 | 7.0 | 0.00 | 0.01 | 0.00 | 61 | 1012.6 |
| 20260507053001 | 44 | 264 | 3.0 | 6.0 | 0.00 | 0.01 | 0.00 | 61 | 1012.6 |
| 20260507052501 | 44 | 255 | 2.0 | 5.0 | 0.00 | 0.01 | 0.00 | 62 | 1012.6 |
| 20260507052001 | 44 | 240 | 2.0 | 6.0 | 0.00 | 0.01 | 0.00 | 62 | 1012.6 |
| 20260507051501 | 44 | 250 | 2.0 | 6.0 | 0.00 | 0.01 | 0.00 | 62 | 1012.5 |
| 20260507051001 | 44 | 243 | 2.0 | 6.0 | 0.00 | 0.01 | 0.00 | 62 | 1012.5 |
| 20260507050501 | 44 | 269 | 3.0 | 6.0 | 0.00 | 0.01 | 0.00 | 62 | 1012.6 |
| 20260507050001 | 44 | 250 | 3.0 | 9.0 | 0.00 | 0.01 | 0.00 | 62 | 1012.5 |
| 20260507045501 | 44 | 245 | 3.0 | 7.0 | 0.00 | 0.01 | 0.00 | 63 | 1012.5 |
| 20260507045001 | 44 | 237 | 2.0 | 6.0 | 0.00 | 0.01 | 0.00 | 63 | 1012.6 |
| 20260507044501 | 44 | 245 | 2.0 | 5.0 | 0.00 | 0.01 | 0.00 | 63 | 1012.6 |
| 20260507044001 | 44 | 266 | 2.0 | 5.0 | 0.00 | 0.01 | 0.00 | 64 | 1012.7 |
| 20260507043502 | 44 | 253 | 3.0 | 6.0 | 0.00 | 0.01 | 0.00 | 64 | 1012.6 |
| 20260507043002 | 44 | 243 | 3.0 | 6.0 | 0.00 | 0.01 | 0.00 | 65 | 1012.6 |
| 20260507042502 | 44 | 254 | 4.0 | 8.0 | 0.00 | 0.01 | 0.00 | 65 | 1012.6 |
| 20260507042002 | 44 | 250 | 4.0 | 7.0 | 0.00 | 0.01 | 0.00 | 65 | 1012.6 |
| 20260507041502 | 45 | 244 | 4.0 | 8.0 | 0.00 | 0.01 | 0.00 | 66 | 1012.5 |
| 20260507041002 | 45 | 255 | 4.0 | 7.0 | 0.00 | 0.01 | 0.00 | 66 | 1012.5 |
| 20260507040502 | 45 | 251 | 5.0 | 10.0 | 0.00 | 0.01 | 0.00 | 66 | 1012.6 |
| 20260507040002 | 45 | 262 | 4.0 | 9.0 | 0.00 | 0.01 | 0.00 | 66 | 1012.7 |